{"data":{"norad_id":68600,"epoch":"2026-05-24T19:44:41.896896Z","epoch_age_seconds":84159,"freshness":"FRESH","line1":"1 68600U 26072AD  26144.82270714  .00023250  00000+0  62825-3 0  9992","line2":"2 68600  51.8692 290.0599 0009407 295.5086  64.4927 15.37592573  7783","mean_motion":15.37592573,"eccentricity":0.0009407,"inclination_deg":51.8692,"raan_deg":290.0599,"arg_perigee_deg":295.5086,"mean_anomaly_deg":64.4927,"bstar":0.00062825,"rev_number":778,"period_min":93.652897736779,"perigee_km":446.80439537629,"apogee_km":459.65693049734,"semimajor_km":6831.3676629368,"source":"CELESTRAK","updated_at":"2026-05-25T13:38:07.955516Z"}}